TimeMDT,TemperatureF,Dew PointF,Humidity,Sea Level PressureIn,VisibilityMPH,Wind Direction,Wind SpeedMPH,Gust SpeedMPH,PrecipitationIn,Events,Conditions,WindDirDegrees,DateUTC
12:15 AM,14.0,8.6,79,29.97,10.0,West,11.5,-,N/A,,Overcast,260,2013-04-18 06:15:00
12:35 AM,14.0,10.4,86,29.97,10.0,West,10.4,-,N/A,,Overcast,260,2013-04-18 06:35:00
12:55 AM,14.0,8.6,79,29.98,10.0,WSW,11.5,-,N/A,,Overcast,250,2013-04-18 06:55:00
1:15 AM,14.0,8.6,79,29.99,10.0,West,13.8,-,N/A,,Overcast,260,2013-04-18 07:15:00
1:35 AM,14.0,10.4,86,29.99,3.0,West,16.1,-,N/A,Snow,Light Snow,260,2013-04-18 07:35:00
1:55 AM,12.2,10.4,92,29.98,3.0,West,13.8,-,N/A,Snow,Light Snow,260,2013-04-18 07:55:00
2:15 AM,12.2,10.4,92,29.98,5.0,West,13.8,-,N/A,Snow,Light Snow,260,2013-04-18 08:15:00
2:35 AM,12.2,10.4,92,29.98,7.0,West,9.2,-,N/A,Snow,Light Snow,260,2013-04-18 08:35:00
2:55 AM,12.2,10.4,92,29.97,10.0,West,10.4,-,N/A,,Mostly Cloudy,260,2013-04-18 08:55:00
3:35 AM,12.2,8.6,85,29.97,10.0,SW,4.6,-,N/A,Snow,Light Snow,230,2013-04-18 09:35:00
3:55 AM,12.2,8.6,85,29.97,10.0,West,6.9,-,N/A,,Mostly Cloudy,260,2013-04-18 09:55:00
4:15 AM,12.2,8.6,85,29.97,10.0,West,8.1,-,N/A,,Overcast,260,2013-04-18 10:15:00
4:35 AM,12.2,8.6,85,29.97,10.0,West,9.2,-,N/A,,Overcast,270,2013-04-18 10:35:00
4:55 AM,12.2,8.6,85,29.96,10.0,West,4.6,-,N/A,,Overcast,270,2013-04-18 10:55:00
5:15 AM,12.2,8.6,85,29.96,10.0,West,4.6,-,N/A,,Overcast,280,2013-04-18 11:15:00
5:35 AM,12.2,8.6,85,29.96,10.0,West,6.9,-,N/A,,Overcast,270,2013-04-18 11:35:00
5:55 AM,10.4,8.6,92,29.96,10.0,West,6.9,-,N/A,,Overcast,270,2013-04-18 11:55:00
6:15 AM,12.2,8.6,85,29.96,5.0,West,3.5,-,N/A,Snow,Light Snow,270,2013-04-18 12:15:00
6:35 AM,12.2,8.6,85,29.97,5.0,West,6.9,-,N/A,,Overcast,260,2013-04-18 12:35:00
6:55 AM,12.2,8.6,85,29.98,10.0,WSW,8.1,-,N/A,,Overcast,240,2013-04-18 12:55:00
7:15 AM,12.2,6.8,79,29.98,4.0,West,5.8,-,N/A,,Haze,270,2013-04-18 13:15:00
7:35 AM,12.2,8.6,85,29.99,4.0,West,3.5,-,N/A,Snow,Light Snow,270,2013-04-18 13:35:00
7:55 AM,12.2,8.6,85,30.00,5.0,WNW,5.8,-,N/A,,Overcast,290,2013-04-18 13:55:00
8:15 AM,12.2,8.6,85,30.01,1.5,WSW,4.6,-,N/A,Snow,Light Snow,250,2013-04-18 14:15:00
8:35 AM,12.2,8.6,85,30.01,1.8,West,10.4,-,N/A,Snow,Light Snow,270,2013-04-18 14:35:00
8:55 AM,14.0,10.4,86,30.02,1.2,West,9.2,-,N/A,Snow,Light Snow,260,2013-04-18 14:55:00
9:35 AM,15.8,8.6,73,30.03,5.0,West,10.4,16.1,N/A,,Haze,260,2013-04-18 15:35:00
9:55 AM,15.8,8.6,73,30.03,7.0,West,15.0,18.4,N/A,,Overcast,260,2013-04-18 15:55:00
10:15 AM,17.6,6.8,63,30.04,10.0,West,9.2,17.3,N/A,,Overcast,280,2013-04-18 16:15:00
10:35 AM,19.4,5.0,54,30.04,10.0,West,9.2,16.1,N/A,,Overcast,280,2013-04-18 16:35:00
10:55 AM,19.4,5.0,54,30.04,10.0,North,5.8,-,N/A,,Mostly Cloudy,350,2013-04-18 16:55:00
11:15 AM,21.2,6.8,54,30.05,10.0,North,6.9,-,N/A,,Scattered Clouds,360,2013-04-18 17:15:00
11:35 AM,21.2,6.8,54,30.06,10.0,West,3.5,16.1,0.01,,Overcast,280,2013-04-18 17:35:00
11:55 AM,21.2,3.2,46,30.06,7.0,North,5.8,-,0.01,,Mostly Cloudy,350,2013-04-18 17:55:00
12:15 PM,21.2,5.0,50,30.08,7.0,West,3.5,-,N/A,,Overcast,270,2013-04-18 18:15:00
12:35 PM,21.2,8.6,58,30.08,7.0,North,3.5,-,N/A,,Overcast,350,2013-04-18 18:35:00
12:55 PM,21.2,6.8,54,30.08,7.0,NNW,4.6,-,N/A,,Overcast,330,2013-04-18 18:55:00
1:15 PM,21.2,10.4,63,30.08,7.0,NW,3.5,-,N/A,,Overcast,310,2013-04-18 19:15:00
1:35 PM,21.2,6.8,54,30.09,10.0,NW,5.8,-,N/A,Snow,Light Snow,310,2013-04-18 19:35:00
1:55 PM,21.2,5.0,50,30.09,10.0,WNW,9.2,-,N/A,,Overcast,290,2013-04-18 19:55:00
2:15 PM,21.2,10.4,63,30.10,10.0,WNW,6.9,20.7,N/A,,Overcast,290,2013-04-18 20:15:00
2:35 PM,19.4,12.2,74,30.10,1.8,West,9.2,17.3,N/A,Snow,Light Snow,280,2013-04-18 20:35:00
2:55 PM,21.2,10.4,63,30.11,3.0,WNW,9.2,19.6,N/A,Snow,Light Snow,290,2013-04-18 20:55:00
3:15 PM,23.0,10.4,59,30.11,3.0,North,3.5,-,N/A,Snow,Light Snow,10,2013-04-18 21:15:00
3:35 PM,23.0,5.0,46,30.12,10.0,NNW,3.5,-,N/A,,Overcast,340,2013-04-18 21:35:00
3:55 PM,24.8,8.6,50,30.12,10.0,Calm,Calm,-,N/A,,Overcast,0,2013-04-18 21:55:00
4:15 PM,24.8,8.6,50,30.14,10.0,NW,3.5,-,N/A,,Overcast,310,2013-04-18 22:15:00
4:35 PM,24.8,6.8,46,30.13,10.0,WNW,8.1,-,N/A,,Overcast,290,2013-04-18 22:35:00
4:55 PM,26.6,6.8,43,30.14,10.0,Calm,Calm,-,N/A,,Mostly Cloudy,0,2013-04-18 22:55:00
5:15 PM,26.6,10.4,51,30.15,10.0,NNW,3.5,-,N/A,,Overcast,340,2013-04-18 23:15:00
5:35 PM,24.8,6.8,46,30.15,10.0,NNE,4.6,-,N/A,,Scattered Clouds,20,2013-04-18 23:35:00
5:55 PM,23.0,6.8,50,30.16,10.0,North,5.8,-,N/A,,Clear,360,2013-04-18 23:55:00
6:15 PM,23.0,5.0,46,30.17,10.0,NNW,5.8,-,N/A,,Scattered Clouds,340,2013-04-19 00:15:00
6:35 PM,23.0,8.6,54,30.18,10.0,North,3.5,-,N/A,,Scattered Clouds,350,2013-04-19 00:35:00
6:55 PM,23.0,5.0,46,30.18,10.0,NNW,5.8,-,N/A,,Clear,330,2013-04-19 00:55:00
7:15 PM,21.2,5.0,50,30.19,10.0,NNW,3.5,-,N/A,,Clear,340,2013-04-19 01:15:00
7:35 PM,21.2,5.0,50,30.20,10.0,West,4.6,-,N/A,,Clear,280,2013-04-19 01:35:00
9:35 PM,19.4,8.6,63,30.24,10.0,East,9.2,-,N/A,,Clear,100,2013-04-19 03:35:00
9:55 PM,17.6,8.6,68,30.25,10.0,East,8.1,-,N/A,,Clear,100,2013-04-19 03:55:00
10:15 PM,17.6,6.8,63,30.25,10.0,Calm,Calm,-,N/A,,Clear,0,2013-04-19 04:15:00
10:35 PM,17.6,6.8,63,30.25,10.0,Calm,Calm,-,N/A,,Clear,0,2013-04-19 04:35:00
10:55 PM,17.6,6.8,63,30.25,10.0,Calm,Calm,-,N/A,,Clear,0,2013-04-19 04:55:00
11:15 PM,15.8,8.6,73,30.25,10.0,Calm,Calm,-,N/A,,Clear,0,2013-04-19 05:15:00
11:35 PM,17.6,6.8,63,30.25,10.0,SE,6.9,-,N/A,,Clear,140,2013-04-19 05:35:00
11:55 PM,17.6,6.8,63,30.25,10.0,East,3.5,-,N/A,,Clear,90,2013-04-19 05:55:00